Starlink 1891

decayed
NORAD ID: 47174 Int'l Des: 2020-088 Owner: SPXS Country: US Constellation: starlink
LEOCIRCULAR
Group

About Starlink 1891

Description loading...

Altitude History

Altitude vs Time

uPlot chart will show altitude changes over time

Two-Line Element Set

1 47174U 20088BE 25009.16363856 .21641954 12530-4 44567-3 0 9991
2 47174 53.0278 21.4494 0002513 231.9692 173.7759 16.46962307228507
Epoch: Jan 9, 2025 • Age: 9413 hours

Current Status

Position data unavailable
Launch Date Nov 25, 2020
Age 5.1 years
Decay Date Jan 9, 2025
Type internet

Technical Details

Classification Payload
Mass 260.00 kg
Dry Mass 248.00 kg
Total Mass 260.00 kg
Length 0.20 m
Diameter 2.80 m
Span 9.00 m
Shape Box + pan
Manufacturer SPXS
Bus Type Starlink
Phase Status Unknown Transfer Status
Owner/State SPXS/US

Large Constellations

Loading constellations...